Location: B�rgermoos
(47.6500°N, 9.0667°E)
Time: 15:57:24
(UTC+00:00)

Vanguard 1 - Pass Details

Date: 01 August 2021
Orbit: 652 x 3831 km, 34.3° (Epoch: 17 September)

Event Time Altitude Azimuth Distance (km) Brightness Sun altitude
Rises 15:29:23 0° 261° (W) 4,349 14.5 33.3°
Reaches altitude 10° 15:32:55 10° 244° (WSW) 3,799 14.4 32.7°
Maximum altitude 15:39:44 20° 202° (SSW) 3,835 13.7 31.6°
Drops below altitude 10° 15:49:23 10° 164° (SSE) 5,584 13.9 29.9°
Sets 15:56:31 0° 151° (SSE) 7,181 14.2 28.8°
